FW7487 Weather Reports


Display with metric or nautical units.
time (UTC)temp
F
wind
direction
speed
MPH
gust
MPH
rain 1hr
in
rain 24hr
in
rain mn
in
humidity
%
barometer
mb
20260504231559 75 360 1.0 3.0 0.00 0.00 0.00 40 1015.5
20260504230049 75 0 1.0 6.0 0.00 0.00 0.00 40 1015.5
20260504224549 76 0 1.0 5.0 0.00 0.00 0.00 38 1015.4
20260504223052 77 158 3.0 8.0 0.00 0.00 0.00 35 1015.5
20260504221558 77 182 2.0 6.0 0.00 0.00 0.00 36 1015.6
20260504220047 78 121 1.0 5.0 0.00 0.00 0.00 35 1015.2
20260504214548 78 130 2.0 7.0 0.00 0.00 0.00 36 1015.2
20260504213048 78 171 3.0 11.0 0.00 0.00 0.00 34 1015.3
20260504211549 78 128 2.0 7.0 0.00 0.00 0.00 34 1015.3
20260504210105 79 223 1.0 9.0 0.00 0.00 0.00 33 1015.4
20260504204559 80 185 1.0 4.0 0.00 0.00 0.00 33 1015.5
20260504203049 79 123 2.0 6.0 0.00 0.00 0.00 34 1015.7
20260504201548 79 143 1.0 7.0 0.00 0.00 0.00 32 1015.7
20260504200051 79 178 0.0 6.0 0.00 0.00 0.00 34 1016.0
20260504194600 78 151 2.0 7.0 0.00 0.00 0.00 36 1016.1
20260504193046 77 161 2.0 9.0 0.00 0.00 0.00 37 1016.4
20260504191549 78 196 1.0 5.0 0.00 0.00 0.00 34 1016.8
20260504184546 77 157 2.0 8.0 0.00 0.00 0.00 34 1017.0
20260504183050 78 342 3.0 8.0 0.00 0.00 0.00 34 1017.3
20260504181550 78 321 1.0 7.0 0.00 0.00 0.00 35 1017.3
20260504180138 78 153 1.0 5.0 0.00 0.00 0.00 34 1017.6
20260504174542 76 304 3.0 9.0 0.00 0.00 0.00 36 1017.7
20260504173059 75 150 1.0 9.0 0.00 0.00 0.00 34 1017.6
20260504171549 75 189 1.0 9.0 0.00 0.00 0.00 36 1017.8
20260504081557 46 0 0.0 0.0 0.00 0.00 0.00 88 1018.6
20260504050113 51 0 0.0 0.0 0.00 0.00 0.00 81 1019.7
20260504044547 51 0 0.0 0.0 0.00 0.00 0.00 81 1019.6
20260504043057 51 0 0.0 0.0 0.00 0.00 0.00 81 1019.6
20260504041546 51 0 0.0 0.0 0.00 0.00 0.00 81 1019.8
20260504040046 52 0 0.0 0.0 0.00 0.00 0.00 79 1019.8
20260504034548 52 0 0.0 1.0 0.00 0.00 0.00 78 1019.6
20260504033048 53 0 0.0 0.0 0.00 0.00 0.00 77 1019.5
20260504031605 53 0 1.0 3.0 0.00 0.00 0.00 75 1019.5
20260504030048 54 360 1.0 3.0 0.00 0.00 0.00 74 1019.1
20260504024546 54 0 0.0 1.0 0.00 0.00 0.00 73 1019.1
20260504023050 55 0 0.0 2.0 0.00 0.00 0.00 72 1019.2
20260504021547 56 0 0.0 0.0 0.00 0.00 0.00 70 1019.0
20260504020049 56 0 0.0 0.0 0.00 0.00 0.00 69 1018.8
20260504014549 57 0 0.0 2.0 0.00 0.00 0.00 68 1018.6
20260504013046 58 0 0.0 2.0 0.00 0.00 0.00 65 1018.4
20260504011549 59 0 0.0 1.0 0.00 0.00 0.00 61 1018.2
20260504010045 60 0 0.0 2.0 0.00 0.00 0.00 57 1018.2
20260504004549 61 0 0.0 0.0 0.00 0.00 0.00 54 1018.1
20260504003049 63 0 0.0 0.0 0.00 0.00 0.00 50 1017.9
20260504001605 64 0 0.0 0.0 0.00 0.00 0.00 48 1017.8
20260504000047 66 0 0.0 0.0 0.00 0.00 0.00 44 1017.9
20260503234544 67 0 0.0 2.0 0.00 0.00 0.00 42 1017.8
20260503233049 68 0 0.0 1.0 0.00 0.00 0.00 40 1017.8